• în România
  • Lista ţărilor
  • Pe 7 zile
  • Temperatura apei
  • Hartă satelitară
  • Meteo pe hartă
  • Widget-uri
  • user-avatar
    Intrare

    Meteo pe oră la Haradok

    Astăzi, 16 Decembrie, Sâmbătă

    Timp Temperatura Precipitaţii Vânt Presiune Umiditate
    00:00 -2°C° 1,3 mm 5 m/s 738 mmHg 93%
    01:00 -2°C° 1,3 mm 5 m/s 738 mmHg 93%
    02:00 -2°C° 0 mm 5 m/s 737 mmHg 92%
    03:00 -1°C° 0,2 mm 5 m/s 737 mmHg 92%
    04:00 -1°C° 0,2 mm 5 m/s 737 mmHg 93%
    05:00 -1°C° 0,2 mm 5 m/s 737 mmHg 93%
    06:00 -1°C° 0 mm 4 m/s 737 mmHg 94%
    07:00 -1°C° 0 mm 4 m/s 737 mmHg 95%
    08:00 0°C° 0 mm 3 m/s 737 mmHg 96%
    09:00 0°C° 0 mm 3 m/s 737 mmHg 97%
    10:00 0°C° 0 mm 3 m/s 738 mmHg 97%
    11:00 +1°C° 0 mm 2 m/s 738 mmHg 98%
    12:00 +1°C° 0,2 mm 2 m/s 737 mmHg 98%
    13:00 +1°C° 0,2 mm 2 m/s 737 mmHg 98%
    14:00 +2°C° 0,2 mm 1 m/s 736 mmHg 98%
    15:00 +1°C° 1,1 mm 2 m/s 736 mmHg 98%
    16:00 +1°C° 1,1 mm 2 m/s 736 mmHg 98%
    17:00 +1°C° 1,1 mm 2 m/s 735 mmHg 97%
    18:00 +1°C° 0,9 mm 2 m/s 735 mmHg 97%
    19:00 0°C° 0,9 mm 3 m/s 734 mmHg 97%
    20:00 0°C° 0,9 mm 3 m/s 734 mmHg 97%
    21:00 0°C° 0,4 mm 3 m/s 735 mmHg 96%
    22:00 -2°C° 0,4 mm 4 m/s 735 mmHg 95%
    23:00 -2°C° 0,4 mm 4 m/s 735 mmHg 95%

    Mâine, 17 Decembrie, Duminică

    Timp Temperatura Precipitaţii Vânt Presiune Umiditate
    00:00 -2°C° 0,2 mm 4 m/s 736 mmHg 94%
    01:00 -2°C° 0,2 mm 4 m/s 737 mmHg 94%
    02:00 -3°C° 0,2 mm 4 m/s 738 mmHg 94%
    03:00 -3°C° 0,2 mm 4 m/s 739 mmHg 94%
    04:00 -3°C° 0,2 mm 4 m/s 740 mmHg 93%
    05:00 -3°C° 0,2 mm 4 m/s 741 mmHg 93%
    06:00 -4°C° 0 mm 3 m/s 742 mmHg 94%
    07:00 -4°C° 0 mm 3 m/s 742 mmHg 94%
    08:00 -5°C° 0 mm 3 m/s 743 mmHg 95%
    09:00 -5°C° 0 mm 3 m/s 744 mmHg 95%
    10:00 -4°C° 0 mm 2 m/s 745 mmHg 95%
    11:00 -3°C° 0 mm 2 m/s 746 mmHg 95%
    12:00 -3°C° 0 mm 2 m/s 746 mmHg 95%
    13:00 -3°C° 0 mm 2 m/s 747 mmHg 95%
    14:00 -3°C° 0 mm 2 m/s 747 mmHg 95%
    15:00 -3°C° 0 mm 2 m/s 748 mmHg 95%
    16:00 -3°C° 0 mm 2 m/s 748 mmHg 95%
    17:00 0°C° 0 mm 1 m/s 749 mmHg 95%
    18:00 0°C° 0 mm 1 m/s 749 mmHg 95%
    19:00 0°C° 0 mm 1 m/s 749 mmHg 95%
    20:00 0°C° 0 mm 1 m/s 750 mmHg 95%
    21:00 0°C° 0 mm 1 m/s 750 mmHg 95%
    22:00 0°C° 0 mm 1 m/s 750 mmHg 95%
    23:00 0°C° 0 mm 1 m/s 750 mmHg 95%

    Poimâine, 18 Decembrie, Luni

    Timp Temperatura Precipitaţii Vânt Presiune Umiditate
    00:00 0°C° 0 mm 1 m/s 751 mmHg 95%
    01:00 0°C° 0 mm 1 m/s 751 mmHg 95%
    02:00 -1°C° 0 mm 1 m/s 751 mmHg 95%
    03:00 -1°C° 0 mm 1 m/s 751 mmHg 95%
    04:00 -1°C° 0 mm 1 m/s 751 mmHg 94%
    05:00 -1°C° 0 mm 1 m/s 751 mmHg 94%
    06:00 -1°C° 0 mm 1 m/s 752 mmHg 94%
    07:00 -1°C° 0 mm 1 m/s 752 mmHg 94%
    08:00 -1°C° 0 mm 1 m/s 752 mmHg 94%
    09:00 -1°C° 0 mm 1 m/s 752 mmHg 94%
    10:00 0°C° 0 mm 1 m/s 753 mmHg 94%
    11:00 0°C° 0 mm 1 m/s 753 mmHg 94%
    12:00 -2°C° 0 mm 2 m/s 753 mmHg 94%
    13:00 -2°C° 0 mm 2 m/s 753 mmHg 94%
    14:00 -2°C° 0 mm 2 m/s 753 mmHg 94%
    15:00 -2°C° 0 mm 2 m/s 753 mmHg 94%
    16:00 -2°C° 0 mm 2 m/s 754 mmHg 94%
    17:00 -3°C° 0 mm 2 m/s 754 mmHg 94%
    18:00 -3°C° 0 mm 2 m/s 754 mmHg 93%
    19:00 -4°C° 0 mm 3 m/s 754 mmHg 91%
    20:00 -4°C° 0 mm 3 m/s 755 mmHg 90%
    21:00 -4°C° 0 mm 3 m/s 755 mmHg 91%
    22:00 -5°C° 0 mm 3 m/s 755 mmHg 91%
    23:00 -5°C° 0 mm 3 m/s 755 mmHg 92%

    19 Decembrie, Marţi

    Timp Temperatura Precipitaţii Vânt Presiune Umiditate
    00:00 -6°C° 0 mm 3 m/s 755 mmHg 92%
    01:00 -6°C° 0 mm 3 m/s 755 mmHg 93%
    02:00 -7°C° 0 mm 3 m/s 755 mmHg 93%
    03:00 -7°C° 0 mm 3 m/s 755 mmHg 93%
    04:00 -7°C° 0 mm 3 m/s 755 mmHg 93%
    05:00 -7°C° 0 mm 3 m/s 755 mmHg 94%
    06:00 -7°C° 0 mm 3 m/s 755 mmHg 94%
    07:00 -7°C° 0 mm 3 m/s 756 mmHg 94%
    08:00 -8°C° 0 mm 4 m/s 756 mmHg 94%
    09:00 -8°C° 0 mm 4 m/s 756 mmHg 94%
    10:00 -7°C° 0 mm 4 m/s 756 mmHg 94%
    11:00 -7°C° 0 mm 4 m/s 756 mmHg 94%
    12:00 -6°C° 0 mm 3 m/s 756 mmHg 94%
    13:00 -5°C° 0 mm 3 m/s 756 mmHg 93%
    14:00 -5°C° 0 mm 3 m/s 756 mmHg 93%
    15:00 -5°C° 0 mm 3 m/s 756 mmHg 94%
    16:00 -5°C° 0 mm 3 m/s 756 mmHg 94%
    17:00 -5°C° 0 mm 3 m/s 756 mmHg 95%
    18:00 -5°C° 0 mm 3 m/s 756 mmHg 95%
    19:00 -4°C° 0 mm 2 m/s 756 mmHg 95%
    20:00 -3°C° 0 mm 2 m/s 756 mmHg 95%
    21:00 -3°C° 0,1 mm 2 m/s 756 mmHg 96%
    22:00 -3°C° 0,1 mm 2 m/s 756 mmHg 96%
    23:00 -2°C° 0,1 mm 2 m/s 755 mmHg 96%

    20 Decembrie, Miercuri

    Timp Temperatura Precipitaţii Vânt Presiune Umiditate
    00:00 -2°C° 0,2 mm 2 m/s 755 mmHg 96%
    01:00 -2°C° 0,2 mm 2 m/s 755 mmHg 96%
    02:00 -2°C° 0,2 mm 2 m/s 755 mmHg 96%
    03:00 -2°C° 0,2 mm 2 m/s 755 mmHg 96%
    04:00 -2°C° 0,2 mm 2 m/s 755 mmHg 96%
    05:00 -2°C° 0,2 mm 2 m/s 755 mmHg 96%
    06:00 -2°C° 0,1 mm 2 m/s 755 mmHg 96%
    07:00 -2°C° 0,1 mm 2 m/s 755 mmHg 96%
    08:00 -2°C° 0,1 mm 2 m/s 755 mmHg 96%
    09:00 0°C° 0 mm 1 m/s 755 mmHg 96%
    10:00 0°C° 0 mm 1 m/s 755 mmHg 96%
    11:00 0°C° 0 mm 1 m/s 755 mmHg 95%
    12:00 0°C° 0 mm 1 m/s 755 mmHg 95%
    13:00 0°C° 0 mm 1 m/s 754 mmHg 94%
    14:00 -1°C° 0 mm 0 m/s 754 mmHg 93%
    15:00 -1°C° 0 mm 0 m/s 754 mmHg 93%
    16:00 -2°C° 0 mm 0 m/s 754 mmHg 94%
    17:00 -2°C° 0 mm 0 m/s 754 mmHg 94%
    18:00 -2°C° 0 mm 0 m/s 754 mmHg 94%
    19:00 -3°C° 0 mm 0 m/s 754 mmHg 94%
    20:00 -3°C° 0 mm 0 m/s 754 mmHg 94%
    21:00 -2°C° 0 mm 1 m/s 754 mmHg 94%
    22:00 -3°C° 0 mm 1 m/s 754 mmHg 95%
    23:00 -3°C° 0 mm 1 m/s 754 mmHg 95%

    21 Decembrie, Joi

    Timp Temperatura Precipitaţii Vânt Presiune Umiditate
    00:00 -3°C° 0 mm 1 m/s 754 mmHg 95%
    01:00 -3°C° 0 mm 1 m/s 754 mmHg 95%
    02:00 -3°C° 0 mm 1 m/s 754 mmHg 95%
    03:00 -3°C° 0 mm 1 m/s 753 mmHg 95%
    04:00 -6°C° 0 mm 2 m/s 753 mmHg 96%
    05:00 -6°C° 0 mm 2 m/s 753 mmHg 96%
    06:00 -6°C° 0 mm 2 m/s 753 mmHg 96%
    07:00 -6°C° 0 mm 2 m/s 753 mmHg 96%
    08:00 -7°C° 0 mm 2 m/s 753 mmHg 96%
    09:00 -6°C° 0 mm 2 m/s 753 mmHg 95%
    10:00 -5°C° 0 mm 2 m/s 753 mmHg 95%
    11:00 -5°C° 0 mm 2 m/s 753 mmHg 94%
    12:00 -5°C° 0 mm 2 m/s 753 mmHg 94%
    13:00 -5°C° 0 mm 2 m/s 753 mmHg 93%
    14:00 -5°C° 0 mm 2 m/s 752 mmHg 93%
    15:00 -6°C° 0 mm 3 m/s 752 mmHg 94%
    16:00 -7°C° 0 mm 3 m/s 752 mmHg 94%
    17:00 -7°C° 0 mm 3 m/s 752 mmHg 95%
    18:00 -7°C° 0 mm 3 m/s 751 mmHg 94%
    19:00 -7°C° 0 mm 3 m/s 751 mmHg 94%
    20:00 -7°C° 0 mm 3 m/s 751 mmHg 93%
    21:00 -7°C° 0 mm 4 m/s 750 mmHg 92%
    22:00 -7°C° 0 mm 4 m/s 750 mmHg 91%
    23:00 -5°C° 0 mm 4 m/s 749 mmHg 90%
    Arată mai mult